Location: Bremen
(53.0793°N, 8.8017°E)
Time: 08:12:20
(UTC+01:00)

Explorer 7 - Pass Details

Date: 02 December 2021
Orbit: 483 x 674 km, 50.3° (Epoch: 17 January)

Event Time Altitude Azimuth Distance (km) Brightness Sun altitude
Rises 12:45:44 0° 276° (W) 2,604 10.3 14.6°
Reaches altitude 10° 12:48:44 10° 252° (WSW) 1,690 9.7 14.5°
Maximum altitude 12:50:50 14° 218° (SW) 1,422 10.2 14.5°
Drops below altitude 10° 12:52:55 10° 184° (S) 1,663 12.1 14.4°
Sets 12:55:50 0° 159° (SSE) 2,534 11.3 14.4°
